Regional Weather Roundup
Issued by NWS Little Rock, AR

Home | Current Version | Previous Version | Graphics & Text | Print | Product List | Glossary On
Versions: 1 2 3 4 5 6 7 8 9 10 11 12 13 14 15 16 17 18 19 20 21 22 23 24 25 26 27 28 29 30 31 32 33 34 35 36 37 38 39 40 41 42 43 44 45 46 47 48 49 50
000
ASUS44 KLZK 080305
RWRLZK

WEATHER ROUNDUP FOR ARKANSAS
NATIONAL WEATHER SERVICE LITTLE ROCK AR
1000 PM CDT TUE JUL 07 2015

NOTE: "FAIR" INDICATES FEW OR NO CLOUDS BELOW 12,000 FEET WITH NO
SIGNIFICANT WEATHER AND/OR OBSTRUCTIONS TO VISIBILITY.

ARZ001-003-010-029-080400-
NORTHWEST ARKANSAS

CITY           SKY/WX    TMP DP  RH WIND       PRES   REMARKS
FAYETTEVILLE   CLOUDY    70  70 100 CALM      30.02R
FORT SMITH     CLOUDY    75  71  87 E5        29.99R
HARRISON       CLOUDY    72  71  97 SE3       30.05R
BENTONVILLE    CLOUDY    72  68  88 SE3       30.03R
ROGERS         CLOUDY    72  71  97 SE3       30.03R
SILOAM SPGS    CLOUDY    72  66  83 N3        30.02R
HIGHFILL       CLOUDY    73  72  96 CALM      30.02R
$$

ARZ004-005-016-080400-
NORTH CENTRAL ARKANSAS

CITY           SKY/WX    TMP DP  RH WIND       PRES   REMARKS
BATESVILLE     CLOUDY    73  72  94 W6        30.02S
FLIPPIN        CLOUDY    73  70  88 CALM      30.01R
MTN HOME       CLOUDY    73  72  96 SE3       30.02R
$$

ARZ040-041-080400-
WEST CENTRAL ARKANSAS

CITY           SKY/WX    TMP DP  RH WIND       PRES   REMARKS
MENA           MOCLDY    75  73  94 CALM      30.02R
MOUNT IDA      CLOUDY    75  73  93 CALM      29.99R FOG
$$

ARZ009-017-025-026-028-080400-
NORTHEAST ARKANSAS

CITY           SKY/WX    TMP DP  RH WIND       PRES   REMARKS
JONESBORO      CLOUDY    73  72  96 CALM      30.02S
NEWPORT        LGT RAIN  75  74  97 SE5       30.03R
WALNUT RIDGE   CLOUDY    73  70  88 S8        30.03R
BLYTHEVILLE    CLOUDY    73 N/A N/A CALM      30.04S
$$

ARZ022-023-033-042-044-080400-
CENTRAL ARKANSAS

CITY           SKY/WX    TMP DP  RH WIND       PRES   REMARKS
LITTLE ROCK    CLOUDY    82  72  71 E5        30.01R HX  87
N LITTLE ROCK    N/A     77  73  86 NE3         N/A
JACKSONVILLE   LGT RAIN  76  73  90 NE2       30.02S
SEARCY         HVY RAIN  75  71  87 CALM      30.05R FOG
HOT SPRINGS    LGT RAIN  77  74  90 NW5       30.01F
RUSSELLVILLE   LGT RAIN  73  72  96 E3        30.01F
CLINTON        MOCLDY    73  73 100 SW6       30.06R
$$

ARZ036-080400-
EAST ARKANSAS

CITY           SKY/WX    TMP DP  RH WIND       PRES   REMARKS
WEST MEMPHIS   CLOUDY    78  75  90 CALM      30.03R
$$

ARZ050-053-066-070-073-080400-
SOUTHWEST ARKANSAS

CITY           SKY/WX    TMP DP  RH WIND       PRES   REMARKS
ARKADELPHIA    FAIR      81  78  90 S3        30.00R HX  89
CAMDEN         MOCLDY    81  73  78 MISG      30.01R HX  85
TEXARKANA      MOCLDY    83  73  72 S14       30.00R HX  89
EL DORADO      MOCLDY    81  74  79 S6        30.03R HX  86
DE QUEEN       MOCLDY    80  76  87 S7        29.97R HX  86
$$

ARZ056-057-069-080400-
SOUTHEAST ARKANSAS

CITY           SKY/WX    TMP DP  RH WIND       PRES   REMARKS
PINE BLUFF     CLOUDY    80  75  84 SE6       30.02R HX  85
STUTTGART      MOCLDY    82  73  74 S6        30.01R HX  88
MONTICELLO     MOCLDY    82  76  81 S8        30.04R HX  89

$$




USA.gov is the U.S. government's official web portal to all federal, state and local government web resources and services.